EZS124Y LFKJ-LFSB

Flight info

Callsign EZS124Y
Flight time 1h 7m
Altitude 32000
Route LONSU M622 PIGOS DCT BARSO DCT IRMAR DCT KINES DCT VANAS DCT MOBLO/N0410F300 DCT LAMUR/N0370F240 DCT KORED N871 KONOL/N0340F180 Z59 LUMEL
Aircraft A320/M-SDE2E3FGHIJ1RWXYZ/LB1

Departure

Time 2026-04-08 10:28
Airport Ajaccio Napoléon Bonaparte airport (LFKJ)

Arrival

Time 2026-04-08 11:35
Airport EuroAirport Basel–Mulhouse–Freiburg (LFSB)
Time Latitude Longitude Altitude Speed Heading
2026-04-08 10:02 41.91971 8.79570 21 ft 0 kts 346°
2026-04-08 10:24 41.91970 8.79591 23 ft 6 kts 103°
2026-04-08 10:24 41.91975 8.79650 22 ft 6 kts 34°
2026-04-08 10:24 41.92017 8.79679 22 ft 11 kts 27°
2026-04-08 10:24 41.92131 8.79749 22 ft 19 kts 25°
2026-04-08 10:25 41.92246 8.79821 23 ft 17 kts 25°
2026-04-08 10:25 41.92350 8.79887 21 ft 16 kts 25°
2026-04-08 10:25 41.92449 8.79948 22 ft 19 kts 24°
2026-04-08 10:25 41.92604 8.80044 21 ft 25 kts 25°
2026-04-08 10:26 41.92726 8.80122 22 ft 15 kts 30°
2026-04-08 10:26 41.92806 8.80197 22 ft 13 kts 41°
2026-04-08 10:26 41.92871 8.80283 21 ft 13 kts 45°
2026-04-08 10:26 41.92947 8.80384 21 ft 18 kts 46°
2026-04-08 10:27 41.92947 8.80519 26 ft 12 kts 131°
2026-04-08 10:27 41.92860 8.80535 30 ft 27 kts 201°
2026-04-08 10:27 41.92438 8.80273 23 ft 102 kts 205°
2026-04-08 10:27 41.91624 8.79767 104 ft 149 kts 205°
2026-04-08 10:28 41.90739 8.79148 766 ft 147 kts 218°
2026-04-08 10:28 41.90158 8.77951 1198 ft 159 kts 246°
2026-04-08 10:28 41.89607 8.76544 1381 ft 187 kts 240°
2026-04-08 10:28 41.88901 8.74935 1635 ft 211 kts 239°
2026-04-08 10:29 41.88097 8.73143 2006 ft 236 kts 239°
2026-04-08 10:29 41.87210 8.71179 2601 ft 253 kts 239°
2026-04-08 10:29 41.86290 8.69136 3480 ft 259 kts 239°
2026-04-08 10:29 41.85356 8.67055 4395 ft 262 kts 239°
2026-04-08 10:30 41.84429 8.64930 5305 ft 266 kts 245°
2026-04-08 10:30 41.83979 8.62519 6146 ft 270 kts 270°
2026-04-08 10:30 41.84340 8.60057 7006 ft 273 kts 295°
2026-04-08 10:30 41.85462 8.58003 7822 ft 277 kts 320°
2026-04-08 10:31 41.87163 8.56699 8672 ft 281 kts 336°
2026-04-08 10:31 41.88967 8.55644 9534 ft 284 kts 336°
2026-04-08 10:31 41.90766 8.54592 10354 ft 288 kts 336°
2026-04-08 10:31 41.92686 8.53463 10728 ft 309 kts 336°
2026-04-08 10:32 41.94716 8.52267 11102 ft 327 kts 335°
2026-04-08 10:32 41.96796 8.50946 11773 ft 333 kts 333°
2026-04-08 10:32 41.98839 8.49527 12520 ft 337 kts 332°
2026-04-08 10:32 42.00913 8.48020 13286 ft 341 kts 331°
2026-04-08 10:33 42.03000 8.46478 14038 ft 344 kts 330°
2026-04-08 10:33 42.05115 8.44920 14693 ft 349 kts 331°
2026-04-08 10:33 42.07258 8.43356 15342 ft 352 kts 332°
2026-04-08 10:33 42.09429 8.41786 15986 ft 356 kts 332°
2026-04-08 10:34 42.11630 8.40205 16612 ft 361 kts 333°
2026-04-08 10:34 42.13861 8.38607 17226 ft 365 kts 333°
2026-04-08 10:34 42.16118 8.36991 17856 ft 369 kts 333°
2026-04-08 10:34 42.18400 8.35355 18497 ft 373 kts 333°
2026-04-08 10:35 42.20698 8.33700 19032 ft 377 kts 333°
2026-04-08 10:35 42.23020 8.32027 19602 ft 379 kts 334°
2026-04-08 10:35 42.25355 8.30342 20180 ft 382 kts 334°
2026-04-08 10:35 42.27707 8.28643 20760 ft 385 kts 334°
2026-04-08 10:36 42.30076 8.26931 21334 ft 388 kts 334°
2026-04-08 10:36 42.32463 8.25208 21906 ft 390 kts 334°
2026-04-08 10:36 42.34865 8.23474 22492 ft 393 kts 334°
2026-04-08 10:36 42.37283 8.21722 23073 ft 396 kts 334°
2026-04-08 10:37 42.39719 8.19956 23636 ft 399 kts 334°
2026-04-08 10:37 42.42174 8.18173 24119 ft 402 kts 334°
2026-04-08 10:37 42.44645 8.16373 24565 ft 405 kts 334°
2026-04-08 10:37 42.47132 8.14562 24998 ft 408 kts 334°
2026-04-08 10:38 42.49643 8.12735 25430 ft 411 kts 334°
2026-04-08 10:38 42.52169 8.10897 25841 ft 414 kts 334°
2026-04-08 10:38 42.54714 8.09045 26250 ft 417 kts 334°
2026-04-08 10:38 42.57276 8.07178 26642 ft 419 kts 334°
2026-04-08 10:39 42.59853 8.05294 27039 ft 422 kts 334°
2026-04-08 10:39 42.62445 8.03397 27420 ft 425 kts 334°
2026-04-08 10:39 42.65057 8.01489 27802 ft 428 kts 334°
2026-04-08 10:39 42.67685 7.99567 28176 ft 430 kts 334°
2026-04-08 10:40 42.70331 7.97629 28539 ft 433 kts 334°
2026-04-08 10:40 42.72991 7.95680 28907 ft 436 kts 334°
2026-04-08 10:40 42.75668 7.93712 29258 ft 438 kts 334°
2026-04-08 10:40 42.78354 7.91733 29606 ft 441 kts 334°
2026-04-08 10:41 42.81057 7.89743 29946 ft 443 kts 334°
2026-04-08 10:41 42.83781 7.87741 30271 ft 446 kts 334°
2026-04-08 10:41 42.86514 7.85726 30547 ft 448 kts 333°
2026-04-08 10:41 42.89260 7.83695 30819 ft 450 kts 333°
2026-04-08 10:42 42.92017 7.81654 31095 ft 452 kts 333°
2026-04-08 10:42 42.94784 7.79605 31361 ft 453 kts 333°
2026-04-08 10:42 42.97559 7.77547 31642 ft 454 kts 333°
2026-04-08 10:42 43.00331 7.75491 32027 ft 453 kts 333°
2026-04-08 10:43 43.03098 7.73441 32201 ft 452 kts 333°
2026-04-08 10:43 43.05819 7.71421 32231 ft 438 kts 333°
2026-04-08 10:43 43.11090 7.67494 32231 ft 428 kts 333°
2026-04-08 10:44 43.16303 7.63601 32234 ft 427 kts 333°
2026-04-08 10:44 43.21513 7.59719 32234 ft 426 kts 333°
2026-04-08 10:45 43.26718 7.55822 32237 ft 426 kts 333°
2026-04-08 10:45 43.31919 7.51922 32234 ft 426 kts 333°
2026-04-08 10:46 43.37113 7.48009 32233 ft 426 kts 333°
2026-04-08 10:46 43.42307 7.44101 32223 ft 425 kts 333°
2026-04-08 10:47 43.47500 7.40189 32236 ft 426 kts 333°
2026-04-08 10:47 43.52691 7.36263 32233 ft 425 kts 333°
2026-04-08 10:48 43.57879 7.32334 32235 ft 425 kts 333°
2026-04-08 10:48 43.63061 7.28399 32233 ft 425 kts 332°
2026-04-08 10:49 43.68235 7.24464 32236 ft 424 kts 332°
2026-04-08 10:49 43.73374 7.20555 32238 ft 424 kts 332°
2026-04-08 10:50 43.78578 7.16584 32235 ft 424 kts 332°
2026-04-08 10:50 43.83737 7.12627 32227 ft 424 kts 332°
2026-04-08 10:51 43.88854 7.08696 32225 ft 423 kts 332°
2026-04-08 10:51 43.94002 7.04736 32220 ft 423 kts 332°
2026-04-08 10:52 43.99150 7.00779 32211 ft 423 kts 332°
2026-04-08 10:52 44.04297 6.96817 32215 ft 423 kts 332°
2026-04-08 10:53 44.09438 6.92853 32219 ft 422 kts 332°
2026-04-08 10:53 44.14736 6.89399 32219 ft 420 kts 345°
2026-04-08 10:54 44.20476 6.88115 32218 ft 418 kts 355°
2026-04-08 10:54 44.26258 6.87250 32218 ft 418 kts 354°
2026-04-08 10:55 44.32032 6.86369 32218 ft 417 kts 354°
2026-04-08 10:55 44.36867 6.85631 32220 ft 417 kts 355°
2026-04-08 10:56 44.42642 6.84756 32218 ft 417 kts 355°
2026-04-08 10:56 44.48403 6.83884 32223 ft 416 kts 354°
2026-04-08 10:57 44.54164 6.83005 32214 ft 417 kts 354°
2026-04-08 10:57 44.59931 6.82110 32215 ft 417 kts 354°
2026-04-08 10:58 44.65698 6.81221 32217 ft 417 kts 354°
2026-04-08 10:58 44.71468 6.80348 32218 ft 417 kts 354°
2026-04-08 10:59 44.77239 6.79469 32218 ft 417 kts 354°
2026-04-08 10:59 44.83015 6.78692 32223 ft 417 kts 356°
2026-04-08 11:00 44.88804 6.78327 32230 ft 416 kts 358°
2026-04-08 11:00 44.94587 6.78073 32232 ft 416 kts 358°
2026-04-08 11:01 45.00360 6.77732 32237 ft 415 kts 357°
2026-04-08 11:01 45.06129 6.77329 32235 ft 415 kts 357°
2026-04-08 11:02 45.11892 6.76921 32238 ft 415 kts 357°
2026-04-08 11:02 45.17656 6.76540 32233 ft 415 kts 357°
2026-04-08 11:03 45.26257 6.75981 32235 ft 414 kts 357°
2026-04-08 11:04 45.32048 6.75611 32234 ft 414 kts 357°
2026-04-08 11:04 45.37799 6.75229 32242 ft 414 kts 357°
2026-04-08 11:05 45.43507 6.74841 32253 ft 413 kts 357°
2026-04-08 11:05 45.49239 6.74451 32253 ft 412 kts 357°
2026-04-08 11:06 45.55005 6.74058 32250 ft 412 kts 357°
2026-04-08 11:06 45.60726 6.73897 32243 ft 412 kts
2026-04-08 11:07 45.66406 6.74947 32239 ft 412 kts
2026-04-08 11:07 45.72097 6.75966 32235 ft 412 kts
2026-04-08 11:08 45.77782 6.77012 32233 ft 412 kts
2026-04-08 11:08 45.83472 6.78077 32236 ft 412 kts
2026-04-08 11:09 45.89121 6.79130 32224 ft 412 kts
2026-04-08 11:09 45.94806 6.80190 32227 ft 412 kts
2026-04-08 11:10 46.00492 6.81258 32227 ft 412 kts
2026-04-08 11:10 46.06177 6.82319 32226 ft 412 kts
2026-04-08 11:11 46.11860 6.83391 32225 ft 412 kts
2026-04-08 11:11 46.17559 6.84475 31960 ft 404 kts
2026-04-08 11:11 46.20326 6.84999 31704 ft 399 kts
2026-04-08 11:12 46.23064 6.85516 31450 ft 396 kts
2026-04-08 11:12 46.25785 6.86030 31203 ft 393 kts
2026-04-08 11:12 46.28493 6.86540 30957 ft 392 kts
2026-04-08 11:12 46.31152 6.87042 30717 ft 390 kts
2026-04-08 11:13 46.33838 6.87552 30471 ft 389 kts
2026-04-08 11:13 46.36518 6.88060 30217 ft 387 kts
2026-04-08 11:13 46.39184 6.88565 29930 ft 386 kts
2026-04-08 11:13 46.41839 6.89065 29646 ft 384 kts
2026-04-08 11:14 46.44478 6.89565 29369 ft 382 kts
2026-04-08 11:14 46.47103 6.90068 29091 ft 380 kts
2026-04-08 11:14 46.49713 6.90570 28817 ft 378 kts
2026-04-08 11:14 46.52317 6.91072 28554 ft 376 kts
2026-04-08 11:15 46.54900 6.91571 28286 ft 374 kts
2026-04-08 11:15 46.57471 6.92064 28020 ft 372 kts
2026-04-08 11:15 46.60033 6.92551 27755 ft 370 kts
2026-04-08 11:15 46.62579 6.93036 27499 ft 368 kts
2026-04-08 11:16 46.65113 6.93520 27242 ft 367 kts
2026-04-08 11:16 46.67635 6.94005 26989 ft 365 kts
2026-04-08 11:16 46.70147 6.94490 26736 ft 363 kts
2026-04-08 11:16 46.72646 6.94967 26486 ft 361 kts
2026-04-08 11:17 46.75135 6.95442 26237 ft 360 kts
2026-04-08 11:17 46.77610 6.95917 25990 ft 358 kts
2026-04-08 11:17 46.80071 6.96393 25744 ft 356 kts
2026-04-08 11:17 46.82518 6.96868 25499 ft 354 kts
2026-04-08 11:18 46.84955 6.97339 25260 ft 352 kts
2026-04-08 11:18 46.87376 6.97810 25015 ft 351 kts
2026-04-08 11:18 46.89789 6.98282 24777 ft 349 kts
2026-04-08 11:18 46.92191 6.98750 24541 ft 347 kts
2026-04-08 11:19 46.94582 6.99214 24304 ft 346 kts
2026-04-08 11:19 46.96964 6.99679 24080 ft 344 kts
2026-04-08 11:19 46.99329 7.00141 23845 ft 342 kts
2026-04-08 11:19 47.01683 7.00598 23575 ft 340 kts
2026-04-08 11:20 47.03997 7.01047 23304 ft 339 kts
2026-04-08 11:20 47.06332 7.01505 23038 ft 338 kts
2026-04-08 11:20 47.08657 7.01959 22764 ft 336 kts
2026-04-08 11:20 47.10971 7.02407 22475 ft 335 kts
2026-04-08 11:21 47.13278 7.02855 22215 ft 334 kts
2026-04-08 11:21 47.15572 7.03303 21953 ft 332 kts
2026-04-08 11:21 47.17860 7.03749 21692 ft 331 kts
2026-04-08 11:21 47.20135 7.04195 21436 ft 330 kts
2026-04-08 11:22 47.22408 7.04639 21182 ft 329 kts
2026-04-08 11:22 47.24669 7.05079 20931 ft 327 kts
2026-04-08 11:22 47.26922 7.05519 20680 ft 326 kts
2026-04-08 11:22 47.29161 7.05961 20274 ft 322 kts
2026-04-08 11:23 47.31416 7.06406 18935 ft 337 kts
2026-04-08 11:23 47.33807 7.06875 17370 ft 355 kts
2026-04-08 11:23 47.36303 7.07365 15808 ft 368 kts
2026-04-08 11:23 47.38878 7.07873 14329 ft 378 kts
2026-04-08 11:24 47.41506 7.08395 12772 ft 384 kts
2026-04-08 11:24 47.44165 7.08925 11278 ft 387 kts
2026-04-08 11:24 47.46760 7.09440 10853 ft 362 kts
2026-04-08 11:24 47.49159 7.09910 10585 ft 335 kts
2026-04-08 11:25 47.51392 7.10344 10326 ft 313 kts
2026-04-08 11:25 47.53484 7.10752 10064 ft 297 kts
2026-04-08 11:25 47.55502 7.11152 9773 ft 290 kts
2026-04-08 11:25 47.57499 7.11552 9481 ft 288 kts
2026-04-08 11:26 47.59475 7.11950 9209 ft 285 kts
2026-04-08 11:26 47.61431 7.12344 8926 ft 283 kts
2026-04-08 11:26 47.63383 7.12740 8649 ft 283 kts
2026-04-08 11:26 47.65325 7.13158 8370 ft 281 kts
2026-04-08 11:27 47.67256 7.13573 8097 ft 280 kts
2026-04-08 11:27 47.69183 7.13996 7826 ft 280 kts
2026-04-08 11:27 47.71099 7.14492 7556 ft 278 kts 18°
2026-04-08 11:27 47.72821 7.15735 7295 ft 275 kts 32°
2026-04-08 11:28 47.74442 7.17251 7035 ft 275 kts 33°
2026-04-08 11:28 47.75864 7.19114 6733 ft 274 kts 54°
2026-04-08 11:28 47.76810 7.21557 6357 ft 272 kts 63°
2026-04-08 11:28 47.77661 7.24062 5967 ft 269 kts 63°
2026-04-08 11:29 47.78476 7.26481 5594 ft 255 kts 63°
2026-04-08 11:29 47.79248 7.28774 5221 ft 241 kts 63°
2026-04-08 11:29 47.79986 7.30961 4907 ft 232 kts 65°
2026-04-08 11:29 47.80417 7.33258 4620 ft 231 kts 85°
2026-04-08 11:30 47.80266 7.35618 4320 ft 230 kts 106°
2026-04-08 11:30 47.79568 7.37708 4043 ft 221 kts 127°
2026-04-08 11:30 47.78477 7.39219 4015 ft 213 kts 145°
2026-04-08 11:30 47.77167 7.40218 3998 ft 206 kts 153°
2026-04-08 11:31 47.75913 7.41096 3916 ft 195 kts 152°
2026-04-08 11:31 47.74688 7.41956 3663 ft 195 kts 152°
2026-04-08 11:31 47.73472 7.42809 3417 ft 192 kts 151°
2026-04-08 11:31 47.72505 7.43486 3215 ft 194 kts 150°
2026-04-08 11:32 47.71299 7.44330 2958 ft 189 kts 153°
2026-04-08 11:32 47.70115 7.45158 2706 ft 186 kts 153°
2026-04-08 11:32 47.68975 7.45954 2453 ft 175 kts 153°
2026-04-08 11:32 47.67931 7.46683 2240 ft 158 kts 153°
2026-04-08 11:33 47.66962 7.47360 2034 ft 151 kts 154°
2026-04-08 11:33 47.66016 7.48022 1844 ft 149 kts 153°
2026-04-08 11:33 47.65093 7.48665 1639 ft 146 kts 154°
2026-04-08 11:33 47.64169 7.49297 1427 ft 147 kts 153°
2026-04-08 11:34 47.63248 7.49940 1261 ft 147 kts 154°
2026-04-08 11:34 47.62312 7.50594 1038 ft 150 kts 153°
2026-04-08 11:34 47.61378 7.51256 880 ft 145 kts 153°
2026-04-08 11:34 47.60574 7.51819 880 ft 107 kts 154°
2026-04-08 11:35 47.60020 7.52203 890 ft 77 kts 155°
2026-04-08 11:35 47.59650 7.52462 887 ft 44 kts 154°
2026-04-08 11:35 47.59464 7.52592 888 ft 20 kts 155°
2026-04-08 11:35 47.59446 7.52728 890 ft 16 kts 64°
2026-04-08 11:36 47.59526 7.52841 890 ft 18 kts 351°
2026-04-08 11:36 47.59635 7.52827 890 ft 17 kts 57°
2026-04-08 11:36 47.59688 7.52996 890 ft 19 kts 63°
2026-04-08 11:36 47.59781 7.53062 890 ft 13 kts 27°
2026-04-08 11:37 47.59823 7.53140 890 ft 3 kts 65°
2026-04-08 11:37 47.59826 7.53150 890 ft 0 kts 66°